Location: Prague
(50.0830°N, 14.4670°E)
Time: 07:35:13
(UTC+02:00)

STARLINK-1670 - Pass Details

Date: 22 September 2020
Orbit: 378 x 381 km, 53.0° (Epoch: 23 October)

Event Time Altitude Azimuth Distance (km) Brightness Sun altitude
Exits shadow 04:09:20 26° 61° (ENE) 792 5.1 -24.9°
Drops below altitude 10° 04:10:51 10° 68° (ENE) 1,393 6.7 -24.7°
Enters shadow 05:05:43 -71° 262° (W) 12,434 10.5 -17.0°
